When you browse on this site, cookies collect data to enhance your experience and personalize the content and advertising you see.
Visit our Privacy Policy to learn more. By continuing to use the site, you agree to this use of cookies and data.
  • In Lithuania
  • List of Countries
  • For 7 days
  • Water Temperature
  • Weather Map
  • Weather Widgets
  • user-avatar
    Login

    Hourly Weather Saurimo

    Today, 25 May, Monday

    Time Temperature Precipitation Wind Pressure Humidity
    00:00 +21°C° 0 mm 1 mps 671 mmHg 62%
    01:00 +21°C° 0 mm 1 mps 671 mmHg 63%
    02:00 +20°C° 0 mm 1 mps 671 mmHg 64%
    03:00 +20°C° 0 mm 1 mps 670 mmHg 65%
    04:00 +18°C° 0 mm 2 mps 670 mmHg 66%
    05:00 +19°C° 0 mm 2 mps 671 mmHg 64%
    06:00 +19°C° 0 mm 2 mps 671 mmHg 62%
    07:00 +20°C° 0 mm 2 mps 672 mmHg 60%
    08:00 +22°C° 0 mm 3 mps 672 mmHg 53%
    09:00 +26°C° 0 mm 3 mps 673 mmHg 46%
    10:00 +29°C° 0 mm 3 mps 673 mmHg 39%
    11:00 +30°C° 0 mm 3 mps 673 mmHg 36%
    12:00 +32°C° 0 mm 2 mps 672 mmHg 33%
    13:00 +34°C° 0 mm 2 mps 672 mmHg 30%
    14:00 +32°C° 0 mm 1 mps 671 mmHg 31%
    15:00 +32°C° 0 mm 1 mps 671 mmHg 33%
    16:00 +31°C° 0 mm 1 mps 670 mmHg 35%
    17:00 +29°C° 0 mm 1 mps 670 mmHg 39%
    18:00 +27°C° 0 mm 1 mps 670 mmHg 43%
    19:00 +25°C° 0 mm 1 mps 670 mmHg 47%
    20:00 +24°C° 0 mm 1 mps 670 mmHg 49%
    21:00 +23°C° 0 mm 1 mps 670 mmHg 51%
    22:00 +23°C° 0 mm 1 mps 670 mmHg 52%
    23:00 +22°C° 0 mm 1 mps 670 mmHg 55%

    Tomorrow, 26 May, Tuesday

    Time Temperature Precipitation Wind Pressure Humidity
    00:00 +21°C° 0 mm 1 mps 670 mmHg 57%
    01:00 +21°C° 0 mm 1 mps 669 mmHg 59%
    02:00 +20°C° 0 mm 1 mps 669 mmHg 61%
    03:00 +20°C° 0 mm 1 mps 669 mmHg 62%
    04:00 +20°C° 0 mm 1 mps 669 mmHg 63%
    05:00 +20°C° 0 mm 1 mps 670 mmHg 62%
    06:00 +21°C° 0 mm 1 mps 671 mmHg 62%
    07:00 +21°C° 0 mm 1 mps 671 mmHg 61%
    08:00 +24°C° 0 mm 1 mps 672 mmHg 53%
    09:00 +27°C° 0 mm 1 mps 672 mmHg 45%
    10:00 +30°C° 0 mm 1 mps 673 mmHg 38%
    11:00 +32°C° 0 mm 1 mps 673 mmHg 35%
    12:00 +33°C° 0 mm 1 mps 672 mmHg 33%
    13:00 +35°C° 0 mm 1 mps 672 mmHg 30%
    14:00 +33°C° 0 mm 1 mps 671 mmHg 34%
    15:00 +32°C° 0 mm 1 mps 671 mmHg 38%
    16:00 +28°C° 0 mm 0 mps 670 mmHg 42%
    17:00 +27°C° 0 mm 0 mps 670 mmHg 45%
    18:00 +25°C° 0 mm 0 mps 670 mmHg 48%
    19:00 +24°C° 0 mm 0 mps 670 mmHg 50%
    20:00 +23°C° 0 mm 0 mps 670 mmHg 53%
    21:00 +22°C° 0 mm 0 mps 670 mmHg 56%
    22:00 +21°C° 0 mm 0 mps 671 mmHg 58%
    23:00 +21°C° 0 mm 0 mps 670 mmHg 60%

    Day after tomorrow, 27 May, Wednesday

    Time Temperature Precipitation Wind Pressure Humidity
    00:00 +20°C° 0 mm 0 mps 670 mmHg 61%
    01:00 +20°C° 0 mm 0 mps 670 mmHg 62%
    02:00 +21°C° 0 mm 1 mps 670 mmHg 64%
    03:00 +21°C° 0 mm 1 mps 669 mmHg 66%
    04:00 +20°C° 0 mm 1 mps 669 mmHg 67%
    05:00 +21°C° 0 mm 1 mps 670 mmHg 65%
    06:00 +22°C° 0 mm 1 mps 671 mmHg 63%
    07:00 +21°C° 0 mm 0 mps 672 mmHg 61%
    08:00 +26°C° 0 mm 1 mps 672 mmHg 53%
    09:00 +29°C° 0 mm 1 mps 673 mmHg 44%
    10:00 +33°C° 0 mm 1 mps 674 mmHg 35%
    11:00 +33°C° 0 mm 1 mps 673 mmHg 34%
    12:00 +33°C° 0 mm 1 mps 672 mmHg 33%
    13:00 +33°C° 0 mm 1 mps 671 mmHg 32%
    14:00 +32°C° 0 mm 1 mps 671 mmHg 34%
    15:00 +31°C° 0 mm 1 mps 671 mmHg 37%
    16:00 +31°C° 0 mm 1 mps 670 mmHg 39%
    17:00 +29°C° 0 mm 1 mps 671 mmHg 41%
    18:00 +27°C° 0 mm 1 mps 671 mmHg 43%
    19:00 +26°C° 0 mm 1 mps 671 mmHg 46%
    20:00 +25°C° 0 mm 1 mps 671 mmHg 47%
    21:00 +24°C° 0 mm 1 mps 671 mmHg 49%
    22:00 +24°C° 0 mm 1 mps 671 mmHg 51%
    23:00 +23°C° 0 mm 1 mps 671 mmHg 52%

    28 May, Thursday

    Time Temperature Precipitation Wind Pressure Humidity
    00:00 +23°C° 0 mm 1 mps 671 mmHg 52%
    01:00 +23°C° 0 mm 1 mps 671 mmHg 53%
    02:00 +23°C° 0 mm 1 mps 671 mmHg 52%
    03:00 +23°C° 0 mm 2 mps 671 mmHg 51%
    04:00 +23°C° 0 mm 2 mps 671 mmHg 50%
    05:00 +23°C° 0 mm 2 mps 671 mmHg 50%
    06:00 +23°C° 0 mm 2 mps 672 mmHg 50%
    07:00 +23°C° 0 mm 2 mps 672 mmHg 50%
    08:00 +25°C° 0 mm 3 mps 673 mmHg 43%
    09:00 +28°C° 0 mm 3 mps 673 mmHg 36%
    10:00 +32°C° 0 mm 4 mps 674 mmHg 29%
    11:00 +33°C° 0 mm 4 mps 673 mmHg 28%
    12:00 +34°C° 0 mm 3 mps 673 mmHg 26%
    13:00 +35°C° 0 mm 3 mps 672 mmHg 24%
    14:00 +35°C° 0 mm 3 mps 672 mmHg 25%
    15:00 +34°C° 0 mm 2 mps 671 mmHg 26%
    16:00 +34°C° 0 mm 2 mps 671 mmHg 27%
    17:00 +30°C° 0 mm 2 mps 671 mmHg 31%
    18:00 +28°C° 0 mm 2 mps 671 mmHg 35%
    19:00 +25°C° 0 mm 2 mps 671 mmHg 39%
    20:00 +24°C° 0 mm 2 mps 671 mmHg 40%
    21:00 +23°C° 0 mm 2 mps 671 mmHg 42%
    22:00 +21°C° 0 mm 2 mps 671 mmHg 44%
    23:00 +21°C° 0 mm 2 mps 671 mmHg 44%

    29 May, Friday

    Time Temperature Precipitation Wind Pressure Humidity
    00:00 +20°C° 0 mm 2 mps 671 mmHg 45%
    01:00 +20°C° 0 mm 2 mps 670 mmHg 45%
    02:00 +19°C° 0 mm 2 mps 670 mmHg 46%
    03:00 +19°C° 0 mm 2 mps 670 mmHg 46%
    04:00 +19°C° 0 mm 2 mps 670 mmHg 47%
    05:00 +19°C° 0 mm 2 mps 671 mmHg 46%
    06:00 +20°C° 0 mm 3 mps 671 mmHg 46%
    07:00 +20°C° 0 mm 3 mps 672 mmHg 46%
    08:00 +24°C° 0 mm 3 mps 673 mmHg 40%
    09:00 +27°C° 0 mm 4 mps 673 mmHg 33%
    10:00 +32°C° 0 mm 4 mps 674 mmHg 27%
    11:00 +32°C° 0 mm 4 mps 673 mmHg 27%
    12:00 +33°C° 0 mm 4 mps 673 mmHg 26%
    13:00 +34°C° 0 mm 3 mps 672 mmHg 25%
    14:00 +34°C° 0 mm 3 mps 672 mmHg 26%
    15:00 +33°C° 0 mm 3 mps 671 mmHg 28%
    16:00 +33°C° 0 mm 3 mps 671 mmHg 29%
    17:00 +29°C° 0 mm 2 mps 671 mmHg 33%
    18:00 +27°C° 0 mm 2 mps 671 mmHg 37%
    19:00 +25°C° 0 mm 2 mps 671 mmHg 42%
    20:00 +24°C° 0 mm 2 mps 671 mmHg 43%
    21:00 +23°C° 0 mm 2 mps 671 mmHg 44%
    22:00 +20°C° 0 mm 2 mps 671 mmHg 45%
    23:00 +20°C° 0 mm 2 mps 670 mmHg 45%

    30 May, Saturday

    Time Temperature Precipitation Wind Pressure Humidity
    00:00 +19°C° 0 mm 2 mps 670 mmHg 45%
    01:00 +19°C° 0 mm 2 mps 670 mmHg 44%
    02:00 +18°C° 0 mm 2 mps 670 mmHg 46%
    03:00 +18°C° 0 mm 2 mps 670 mmHg 47%
    04:00 +17°C° 0 mm 2 mps 670 mmHg 48%
    05:00 +18°C° 0 mm 2 mps 670 mmHg 47%
    06:00 +18°C° 0 mm 2 mps 671 mmHg 46%
    07:00 +19°C° 0 mm 3 mps 672 mmHg 45%
    08:00 +22°C° 0 mm 3 mps 672 mmHg 41%
    09:00 +27°C° 0 mm 3 mps 673 mmHg 36%
    10:00 +30°C° 0 mm 4 mps 673 mmHg 31%
    11:00 +31°C° 0 mm 3 mps 673 mmHg 30%
    12:00 +33°C° 0 mm 3 mps 672 mmHg 28%
    13:00 +34°C° 0 mm 3 mps 672 mmHg 26%
    14:00 +32°C° 0 mm 2 mps 672 mmHg 28%
    15:00 +32°C° 0 mm 2 mps 671 mmHg 30%
    16:00 +31°C° 0 mm 2 mps 671 mmHg 32%
    17:00 +29°C° 0 mm 1 mps 671 mmHg 35%
    18:00 +27°C° 0 mm 1 mps 671 mmHg 39%
    19:00 +25°C° 0 mm 1 mps 671 mmHg 42%
    20:00 +24°C° 0 mm 1 mps 671 mmHg 44%
    21:00 +24°C° 0 mm 1 mps 671 mmHg 45%
    22:00 +23°C° 0 mm 1 mps 671 mmHg 47%
    23:00 +22°C° 0 mm 1 mps 671 mmHg 49%
    Show more